Location: Albany
(35.0000°S, 118.0000°E)
Time: 16:44:14
(UTC-04:00)

ISS - All Passes

Search period start: 20 July 2017 00:00
Search period end: 30 July 2017 00:00
Orbit: 400 x 408 km, 51.6° (Epoch: 20 July)

Date Brightness Start Highest point End Pass type
(mag) Time Alt. Az. Time Alt. Az. Time Alt. Az.
20 Jul - 03:58:17 10° S 04:00:06 14° SSE 04:01:55 10° ESE daylight
20 Jul - 05:33:36 10° SW 05:36:58 79° NW 05:40:15 10° NE daylight
20 Jul - 20:35:56 10° NNE 20:38:00 16° NE 20:40:06 10° E daylight
20 Jul - 22:11:02 10° WNW 22:14:13 40° SW 22:17:26 10° SE daylight
21 Jul - 04:41:22 10° SW 04:44:38 48° SE 04:47:51 10° ENE daylight
21 Jul - 06:19:10 10° W 06:20:46 13° NW 06:22:21 10° NNW visible
21 Jul - 21:18:32 10° NW 21:21:51 86° SW 21:25:14 10° SE daylight
21 Jul - 22:57:15 10° SW 22:58:47 13° SSW 23:00:21 10° S daylight
22 Jul - 03:49:20 10° SSW 03:52:12 26° SE 03:55:03 10° E daylight
22 Jul - 05:25:47 10° WSW 05:28:38 26° NW 05:31:28 10° N daylight
22 Jul - 20:26:26 10° NNW 20:29:35 42° NE 20:32:47 10° ESE daylight
22 Jul - 22:03:42 10° W 22:06:12 19° SSW 22:08:44 10° SSE daylight
23 Jul - 02:57:29 10° SSW 02:59:40 16° SSE 03:01:50 10° ESE daylight
23 Jul - 04:33:06 10° SW 04:36:25 59° NW 04:39:40 10° NE daylight
23 Jul - 19:34:53 10° N 19:37:23 20° NE 19:39:55 10° E daylight
23 Jul - 21:10:39 10° WNW 21:13:42 32° SW 21:16:47 10° SSE daylight
24 Jul - 02:06:15 10° S 02:07:01 11° SSE 02:07:49 10° SE daylight
24 Jul - 03:40:45 10° SW 03:44:05 62° SE 03:47:22 10° ENE daylight
24 Jul - 20:17:58 10° NW 20:21:16 66° SW 20:24:37 10° SE daylight
24 Jul - 21:57:20 10° SW 21:58:18 11° SSW 21:59:16 10° S daylight
25 Jul - 02:48:36 10° SSW 02:51:39 31° SE 02:54:39 10° E daylight
25 Jul - 04:25:24 10° WSW 04:27:59 21° NW 04:30:31 10° N daylight
25 Jul - 19:25:40 10° NNW 19:28:55 56° NE 19:32:13 10° SE daylight
25 Jul - 21:03:25 10° WSW 21:05:38 16° SSW 21:07:54 10° SSE daylight
26 Jul - 01:56:38 10° SSW 01:59:06 19° SSE 02:01:33 10° ESE daylight
26 Jul - 03:32:32 10° WSW 03:35:45 44° NW 03:38:54 10° NNE daylight
26 Jul - 18:33:51 10° N 18:36:39 25° NE 18:39:29 10° ESE visible
26 Jul - 20:10:10 10° W 20:13:04 27° SW 20:16:00 10° SSE daylight
27 Jul - 01:05:01 10° S 01:06:27 12° SSE 01:07:53 10° SE daylight
27 Jul - 02:40:02 10° SW 02:43:24 81° SE 02:46:43 10° NE daylight
27 Jul - 17:43:00 10° NNE 17:44:27 12° NE 17:45:55 10° E visible
27 Jul - 19:17:19 10° WNW 19:20:34 50° SW 19:23:51 10° SE daylight
28 Jul - 01:47:46 10° SSW 01:50:58 38° SE 01:54:06 10° ENE daylight
28 Jul - 03:25:01 10° W 03:27:11 16° NW 03:29:20 10° N daylight
28 Jul - 18:24:51 10° NW 18:28:09 74° NE 18:31:31 10° SE visible
28 Jul - 20:03:04 10° WSW 20:04:58 14° SSW 20:06:54 10° S daylight
29 Jul - 00:55:43 10° SSW 00:58:24 22° SSE 01:01:05 10° E daylight
29 Jul - 02:31:52 10° WSW 02:34:56 34° NW 02:37:58 10° NNE daylight
29 Jul - 17:32:49 10° NNW 17:35:49 32° NE 17:38:52 10° ESE visible
29 Jul - 19:09:37 10° W 19:12:20 22° SSW 19:15:04 10° SSE daylight
